GAOFEN-6

Last updated on Thu Oct 30 2025 00:02:32 GMT+0000 (Coordinated Universal Time)

1 43484U 18048A 25302.53540209 .00001169 00000+0 17453-3 0 9993 2 43484 97.8085 8.2715 0011248 195.0798 165.0078 14.76553038399358
UTC large
Height (km)
Speed (km/s)
/
Latitude / Longitude
Inclination (degrees)
Orbital Period (minutes)
Azimuth
Elevation
Range (km)
Doppler Factor

Next 0 passes for location: London (51.5072 / 0.1276)

Sorry there are no passes over London.